Location: Unspecified
(0.0000°N, 0.0000°E)
Time: 08:28:01
(UTC+02:00)

Altair - All Passes

Search period start: 30 May 2015 00:00
Search period end: 09 June 2015 00:00
Orbit: 1501 x 1683 km, 47.2° (Epoch: 28 May)

Date Brightness Start Highest point End Pass type
(mag) Time Alt. Az. Time Alt. Az. Time Alt. Az.
30 May - 02:37:10 10° NNW 02:46:22 56° NE 02:55:22 10° SE visible
30 May - 04:43:06 10° WNW 04:51:03 30° SW 04:58:36 10° S night (unlit)
30 May - 13:23:25 10° S 13:30:29 24° SE 13:38:10 10° E daylight
30 May - 15:25:39 10° SW 15:35:29 74° NW 15:45:35 10° NNE daylight
30 May - 17:36:04 10° WNW 17:41:11 14° NW 17:45:31 10° NNW daylight
31 May - 02:12:09 10° NNW 02:21:13 50° NE 02:30:05 10° ESE visible
31 May - 04:17:35 10° WNW 04:25:52 34° SW 04:33:48 10° SSE night (unlit)
31 May - 12:58:46 10° S 13:05:14 21° SE 13:12:21 10° E daylight
31 May - 15:00:28 10° SW 15:10:19 82° NW 15:20:27 10° NE daylight
31 May - 17:09:51 10° W 17:15:51 16° NW 17:21:11 10° N daylight
01 Jun - 01:47:09 10° NNW 01:56:03 44° NE 02:04:47 10° ESE visible
01 Jun - 03:52:06 10° WNW 04:00:42 38° SW 04:08:56 10° SSE night (unlit)
01 Jun - 12:34:14 10° S 12:39:57 18° SE 12:46:24 10° E daylight
01 Jun - 14:35:19 10° SW 14:45:08 90° SE 14:55:16 10° NE daylight
01 Jun - 16:43:50 10° W 16:50:32 19° NW 16:56:40 10° N daylight
02 Jun - 01:22:12 10° NNW 01:30:52 39° NE 01:39:25 10° ESE visible
02 Jun - 03:26:41 10° WNW 03:35:32 43° SW 03:44:03 10° SSE night (unlit)
02 Jun - 12:09:51 10° SSE 12:14:40 15° SE 12:20:17 10° E daylight
02 Jun - 14:10:12 10° SW 14:19:59 82° SE 14:30:04 10° NE daylight
02 Jun - 16:17:59 10° W 16:25:13 21° NW 16:32:03 10° N daylight
03 Jun - 00:57:16 10° NNW 01:05:40 35° NE 01:14:01 10° ESE visible
03 Jun - 03:01:18 10° WNW 03:10:23 49° SW 03:19:08 10° SSE night (unlit)
03 Jun - 11:45:41 10° SSE 11:49:21 13° SE 11:53:54 10° ESE daylight
03 Jun - 13:45:07 10° SSW 13:54:48 74° SE 14:04:50 10° NE daylight
03 Jun - 15:52:14 10° W 15:59:56 24° NW 16:07:20 10° N daylight
04 Jun - 00:32:24 10° N 00:40:28 31° NE 00:48:33 10° ESE visible
04 Jun - 02:35:58 10° NW 02:45:14 55° SW 02:54:10 10° SSE night (unlit)
04 Jun - 11:22:06 10° SSE 11:24:02 11° SE 11:26:54 10° ESE daylight
04 Jun - 13:20:04 10° SSW 13:29:38 66° SE 13:39:34 10° NE daylight
04 Jun - 15:26:34 10° WSW 15:34:40 27° NW 15:42:32 10° N daylight
05 Jun - 00:07:33 10° N 00:15:14 28° NE 00:23:01 10° ESE visible
05 Jun - 02:10:40 10° NW 02:20:06 62° SW 02:29:11 10° SSE visible
05 Jun - 12:55:04 10° SSW 13:04:28 59° SE 13:14:16 10° NE daylight
05 Jun - 15:01:00 10° WSW 15:09:24 30° NW 15:17:42 10° N daylight
05 Jun - 23:42:46 10° N 23:49:59 24° NE 23:57:25 10° E visible
06 Jun - 01:45:24 10° NW 01:54:57 69° SW 02:04:10 10° SSE visible
06 Jun - 03:57:25 10° WSW 04:00:22 11° SW 04:02:28 10° SSW night (unlit)
06 Jun - 12:30:05 10° SSW 12:39:18 53° SE 12:48:55 10° NE daylight
06 Jun - 14:35:29 10° WSW 14:44:10 34° NW 14:52:49 10° NNE daylight
06 Jun - 23:18:01 10° N 23:24:44 22° NE 23:31:45 10° E visible
07 Jun - 01:20:09 10° NW 01:29:49 77° SW 01:39:07 10° SE visible
07 Jun - 03:30:36 10° WSW 03:35:04 13° SW 03:38:45 10° SSW night (unlit)
07 Jun - 12:05:08 10° SSW 12:14:07 47° SE 12:23:32 10° ENE daylight
07 Jun - 14:10:03 10° WSW 14:18:56 38° NW 14:27:54 10° NNE daylight
07 Jun - 22:53:22 10° N 22:59:27 19° NE 23:05:57 10° E visible
08 Jun - 00:54:57 10° NW 01:04:41 86° SW 01:14:03 10° SE visible
08 Jun - 03:04:20 10° W 03:09:48 16° SW 03:14:34 10° SSW night (unlit)
08 Jun - 11:40:12 10° SSW 11:48:56 42° SE 11:58:07 10° ENE daylight
08 Jun - 13:44:39 10° WSW 13:53:43 43° NW 14:02:56 10° NNE daylight
08 Jun - 22:28:49 10° N 22:34:09 17° NE 22:40:02 10° E visible
